Regional Weather Roundup
Issued by NWS Sterling, VA

Home | Current Version | Previous Version | Text Only | Print | Product List | Glossary Off
Versions: 1 2 3 4 5 6 7 8 9 10 11 12 13 14 15 16 17 18 19 20 21 22 23 24 25 26 27 28 29 30 31 32 33 34 35 36 37 38 39 40 41 42 43 44 45 46 47 48 49 50

000
ASUS41 KLWX 291210
RWRLWX

REGIONAL WEATHER ROUNDUP
NATIONAL WEATHER SERVICE BALTIMORE MD/WASHINGTON DC
700 AM EST THU JAN 29 2015

Note: "FAIR" indicates few or no clouds below 12,000 feet
with no significant weather and/or obstructions to visibility.
 TC=TEMPERATURE CELSIUS

 * =Non NWS site. Station does not report precipitation (e.g. rain,
    snow, etc.), thunder, or fog.

DCZ001-MDZ009-015-VAZ040>042-051-053>054-291300-
WASHINGTON METRO

CITY           SKY/WX    TMP DP  RH WIND       PRES   REMARKS
WASHINGTON NAT PTCLDY    28  13  53 CALM      30.35S
DULLES         PTCLDY    15  11  83 CALM      30.31F
ANDREWS AFB    CLEAR     18  13  82 CALM      30.32S
FT BELVOIR     CLEAR     16  13  86 MISG      30.34S
QUANTICO       PTCLDY    20  14  77 NW5       30.35S
COLLEGE PARK*  PTCLDY    19  14  79 CALM      30.34R
LEESBURG*      PTCLDY    18  14  86 NW3       30.32S
MANASSAS*      CLEAR     16  16 100 CALM      30.33S
GAITHERSBURG*  PTCLDY    18   7  62 CALM      30.34S

$$

MDZ006>007-011-014-291300-
BALTIMORE METRO

CITY           SKY/WX    TMP DP  RH WIND       PRES   REMARKS
BWI AIRPORT    PTCLDY    18  10  71 CALM      30.33S
MD SCIENCE CTR   N/A     25   8  48 MISG      30.34R
MARTIN STATE   CLEAR    N/A N/A N/A CALM      30.36R
ANNAPOLIS      CLEAR     22  12  65 CALM      30.35R

$$

MDZ012-015-019>023-291300-
MARYLAND EASTERN SHORE

CITY           SKY/WX    TMP DP  RH WIND       PRES   REMARKS
OCEAN CITY     CLEAR     20  11  68 N6        30.34R
SALISBURY      CLEAR     20  13  74 CALM      30.34R
BAY BRIDGE AP*   N/A     27  14  59 CALM      30.35S
CAMBRIDGE*     CLEAR     23  18  80 CALM      30.33S

$$

MDZ017>025-291300-
SOUTHERN MARYLAND

CITY           SKY/WX    TMP DP  RH WIND       PRES   REMARKS
PATUXENT RIVER PTCLDY    20  11  68 W5        30.34R
ST INIGOES     CLEAR     20  12  71 CALM      30.34R
LEONARDTOWN*   CLEAR     19  10  68 CALM      30.35

$$

MDZ003>005-291300-
NORTH CENTRAL MARYLAND

CITY           SKY/WX    TMP DP  RH WIND       PRES   REMARKS
FREDERICK*     CLEAR     14   9  79 CALM      30.36R
HAGERSTOWN APT MOCLDY    15   6  67 CALM      30.28S
WESTMINSTER*   PTCLDY    18   7  62 CALM      30.28S

$$

MDZ501>502-291300-
WESTERN MARYLAND

CITY           SKY/WX    TMP DP  RH WIND       PRES   REMARKS
OAKLAND*       CLOUDY    23   0  36 SE12      30.04F WCI  12
CUMBERLAND*    CLOUDY    18  12  79 CALM      30.29F

$$

VAZ025>031-291300-
SHENANDOAH VALLEY

CITY           SKY/WX    TMP DP  RH WIND       PRES   REMARKS
WINCHESTER*    MOCLDY    21  12  68 CALM      30.27S
FRONT ROYAL*   FAIR      19  18  93 CALM      30.26S
LURAY*         FAIR      23  19  86 CALM      30.25F
NEW MARKET*    FAIR      19  15  84 CALM      30.24F
STAUNTON*      MOCLDY    19  15  84 CALM      30.26F
WAYNESBORO*    FAIR      18  13  81 CALM      30.23F

$$

WVZ021-048>050-054>055-291300-
EASTERN WEST VIRGINIA PANHANDLE

CITY           SKY/WX    TMP DP  RH WIND       PRES   REMARKS
MARTINSBURG    MOCLDY    16   8  71 CALM      30.29S
PETERSBURG*    CLOUDY    16  13  86 CALM      30.23F

$$

VAZ036>039-050-291300-
CENTRAL FOOTHILLS

CITY           SKY/WX    TMP DP  RH WIND       PRES   REMARKS
CHARLOTTESVILL CLOUDY    24  10  55 CALM      30.30S
CULPEPER*      PTCLDY    18  16  93 CALM      30.32S
ORANGE*        MOCLDY    21  19  93 S3        30.33R
GORDONSVILLE*  FAIR      19  16  86 CALM      30.32R
WARRENTON*     FAIR      18  18 100 CALM      30.31S

$$

VAZ055>057-291300-
NORTH AND CENTRAL PIEDMONT

CITY           SKY/WX    TMP DP  RH WIND       PRES   REMARKS
FREDERICKSBRG* CLEAR     19  15  84 W3        30.34R
STAFFORD*      CLEAR     16  11  83 CALM      30.38R

$$

NCZ024-NYZ072-PAZ021-071-VAZ022-071-291300-
OTHER REGIONAL OBSERVATIONS

CITY           SKY/WX    TMP DP  RH WIND       PRES   REMARKS
NEW YORK CITY  CLEAR     20   3  48 NW3       30.33S
PHILADELPHIA   PTCLDY    23   4  44 N3        30.35R
PITTSBURGH     CLOUDY    22  12  65 SE6       30.06F
ROANOKE        PTCLDY    24  16  71 CALM      30.28F
RICHMOND       PTCLDY    23  12  62 CALM      30.34R
RALEIGH        MOCLDY    24  14  65 CALM      30.35R

$$

ANZ530>537-291300-
MARINE OBSERVATIONS

STATION/POSITION TIME  TEMP    WIND        PRES
                       AIR SEA DIR/SP/G
                 (UTC) (F)     (DEG/KT/KT) (MB)
THOMAS PT LIGHT  1200   27 35  340/  5/  6 1028.6R
BALT KEY BRIDGE  1200   26     300/  2/  4 1027.6R
COVE POINT       1200   28     350/  6/  9 1027.1R
LEWISETTA        1200   26 35  290/  2/  2 1027.3S
SOLOMONS ISLAND  1200      37                N/A
PINEY POINT      1200           10/  6/  8   N/A

$$



USA.gov is the U.S. government's official web portal to all federal, state and local government web resources and services.